Regional Weather Roundup
Issued by NWS Green Bay, WI

Home | Current Version | Previous Version | Graphics & Text | Print | Product List | Glossary On
Versions: 1 2 3 4 5 6 7 8 9 10 11 12 13 14 15 16 17 18 19 20 21 22 23 24 25 26 27 28 29 30 31 32 33 34 35 36 37 38 39 40 41 42 43 44 45 46 47 48 49 50
000
ASUS43 KGRB 260910
RWRGRB

NORTH-CENTRAL AND NORTHEAST WISCONSIN REGIONAL WEATHER ROUNDUP
NATIONAL WEATHER SERVICE GREEN BAY WI
300 AM CST FRI DEC 26 2014

WIZ005-009-010>012-018-019-261000-
NORTH CENTRAL WISCONSIN

CITY           SKY/WX    TMP DP  RH WIND       PRES   REMARKS
IRONWOOD       CLOUDY    28  28 100 CALM      29.88S
MANITOWISH WTR FOG       25  25 100 CALM      29.89R VSB 1/2
ARBOR VITAE    CLOUDY    31  29  95 CALM      29.88R FOG
EAGLE RIVER    CLOUDY    28  28 100 CALM      29.88R FOG
LAND O LAKES   CLOUDY    27  27  99 CALM      29.90R FOG
RHINELANDER    CLOUDY    28  27  96 E3        29.89R FOG
PHILLIPS       CLOUDY    29  28  97 CALM      29.87R
ANTIGO         CLOUDY    28  28 100 S6        29.88S FOG
TOMAHAWK       CLOUDY    28  27  96 CALM      29.89S FOG
MERRILL        MOCLDY    26  26 100 CALM      29.89R FOG
$$

WIZ013-073-261000-
NORTHEAST WISCONSIN

CITY           SKY/WX    TMP DP  RH WIND       PRES   REMARKS
IRON MOUNTAIN  CLOUDY    31  29  92 CALM      29.91R FOG
MARINETTE      MOCLDY    28  27  93 CALM      29.93S
OCONTO         CLOUDY    25  25 100 CALM      29.94S VSB 1/2
$$

WIZ017-030-035>037-045-261000-
CENTRAL WISCONSIN

CITY           SKY/WX    TMP DP  RH WIND       PRES   REMARKS
MEDFORD        CLOUDY    25  24  96 E5        29.87R FOG
WAUSAU         CLOUDY    28  27  96 SE3       29.88S
MOSINEE        CLOUDY    28  28 100 E5        29.89S FOG
MARSHFIELD     MOCLDY    29  27  92 NE5       29.88R FOG
WISC RAPIDS    PTCLDY    26  24  92 CALM      29.90R FOG
STEVENS POINT  CLOUDY    26  26  99 NE3       29.89S FOG
WAUPACA        CLEAR     27  26  95 CALM      29.91S FOG
SHAWANO        FOG       29  28  94 CALM      29.93R VSB 1/4
CLINTONVILLE   CLEAR     27  25  93 CALM      29.91S FOG
$$

WIZ038-039-048-051-261000-
FOX VALLEY

CITY           SKY/WX    TMP DP  RH WIND       PRES   REMARKS
NWS GREEN BAY  PTCLDY    30  29  96 CALM      29.93R FOG
APPLETON       FOG       28  28 100 SE5       29.91F VSB 1/2
OSHKOSH        PTCLDY    35  32  88 S10       29.91S
FOND DU LAC    PTCLDY    37  32  82 S13       29.91F
$$

WIZ022-050-052-261000-
EAST CENTRAL WISCONSIN

CITY           SKY/WX    TMP DP  RH WIND       PRES   REMARKS
STURGEON BAY   PTCLDY    34  28  80 CALM      29.96S
MANITOWOC      PTCLDY    29  27  92 CALM      29.95S
SHEBOYGAN      MOCLDY    36  32  85 S6        29.94S
$$

LMZ563-521-522-541>543-261000-
LAKESHORE

STATION/POSITION TIME  TEMP    WIND        PRES    VSBY  WAVE
                       AIR SEA DIR/SP/G                  HT/PER
                 (UTC) (F)     (DEG/KT/KT) (MB)    (MI)  (FT/S)
SHEBOYGAN LKSHOR 0900   40 37  190/ 12/ 13 1014.5F
KEWAUNEE LKSHORE 0900   31      CALM  /  1 1013.3R
ALGOMA MARINA    0900             CALM       N/A
NORTHPORT PIER   0900   32     180/  2/  4 1014.2S
SISTER BAY LKSHO 0800          170/  8/ 10   N/A
CHAMBERS ISLAND  0900   32     180/  1/  4 1014.2S
MENOMINEE LKSHOR 0900   33     180/  3/  4 1014.4F
$$


USA.gov is the U.S. government's official web portal to all federal, state and local government web resources and services.